Weather in Stroitel'

Russia / Tambov Oblast     52°39′04″N   41°25′51″E
temp.,
°C
wind,
m/s
gust,
m/s
humid.,
%
clouds,
%
prec.,
mm/h
press.,
hPa
HPBL,
m
20 june, sun
sun2000:00+15se11810 0.0 102511
03:00+14ese11830 0.0 102511
06:00+17ese12790 0.0 102572
09:00+22ese23610 0.0 1024558
12:00+26ese23480 0.0 10241187
15:00+27se33470 0.0 10221329
18:00+26ese246487 0.0 1022264
21:00+20e2278100 0.0 102212
21 june, mon
mon2100:00+18e2381100 0.0 102226
03:00+17e2286100 0.0 102224
06:00+19ese2584100 0.0 1022147
09:00+24se3463100 0.0 1022536
12:00+27se3452100 0.0 1022974
15:00+29ese3449100 0.0 10211169
18:00+27ese34635 0.0 1021252
21:00+21ese238239 0.0 102124
22 june, tue
tue2200:00+19ese23854 0.0 102224
03:00+18e23900 0.0 102226
06:00+20ese25850 0.0 1022137
09:00+26ese35630 0.0 1022631
12:00+29se33485 0.0 10221514
15:00+30ese2343100 0.0 10211850
18:00+28e246124 0.0 1021156
21:00+23ene227436 0.0 102120
23 june, wed
wed2300:00+20ene22785 0.0 102125
03:00+19e228639 0.0 102118
06:00+21e24805 0.0 1021118
09:00+27ese34585 0.0 1021508
12:00+31se34445 0.0 10211349
15:00+32sse33435 0.0 10201741
18:00+30se235913 0.0 1020187
21:00+24ese227389 0.0 102012
24 june, thu
thu2400:00+22sse228026 0.0 102012
03:00+21e117815 0.0 102111
06:00+23se11746 0.0 102148
09:00+28ese11567 0.0 1021472
12:00+31sw114514 0.0 10201823
15:00+32wnw114778 0.0 10201658
18:00+21nnw6981100 7.0 1020139
21:00+21nnw1164100 8.1 102011